This is the latest recevied weather packets stored in our database for station/object W0WC. If no packets are shown the sender has not sent any weather packets the latest 10 day(s).
| Time | Temp. | Humidity | Pressure | Rain* | Wind** | Luminosity | Snow |
|---|---|---|---|---|---|---|---|
| 1777841874 | 27.78° C | 37% | 1013.6 hPa | 0 mm | - | 591 W/m² | - |
| 1777841571 | 27.78° C | 36% | 1013.5 hPa | 0 mm | - | 602 W/m² | - |
| 1777841267 | 27.78° C | 35% | 1013.5 hPa | 0 mm | - | 614 W/m² | - |
| 1777840965 | 27.22° C | 37% | 1013.5 hPa | 0 mm | - | 626 W/m² | - |
| 1777840662 | 27.22° C | 37% | 1013.5 hPa | 0 mm | - | 636 W/m² | - |
| 1777840360 | 27.22° C | 36% | 1013.6 hPa | 0 mm | - | 650 W/m² | - |
| 1777840057 | 27.78° C | 34% | 1013.8 hPa | 0 mm | - | 658 W/m² | - |
| 1777839754 | 27.22° C | 36% | 1013.8 hPa | 0 mm | - | 672 W/m² | - |
| 1777839452 | 27.22° C | 37% | 1014 hPa | 0 mm | - | 680 W/m² | - |
| 1777839149 | 26.67° C | 35% | 1013.9 hPa | 0 mm | - | 691 W/m² | - |
| 1777838846 | 26.67° C | 37% | 1014 hPa | 0 mm | - | 701 W/m² | - |
| 1777838542 | 26.67° C | 36% | 1014.2 hPa | 0 mm | - | 711 W/m² | - |
| 1777838239 | 27.22° C | 36% | 1014.2 hPa | 0 mm | - | 717 W/m² | - |
| 1777837936 | 27.22° C | 37% | 1014.2 hPa | 0 mm | - | 725 W/m² | - |
| 1777837633 | 26.67° C | 38% | 1014.5 hPa | 0 mm | - | 735 W/m² | - |
| 1777837329 | 26.67° C | 39% | 1014.2 hPa | 0 mm | - | 742 W/m² | - |
| 1777837025 | 27.22° C | 35% | 1014.5 hPa | 0 mm | - | 750 W/m² | - |
| 1777836721 | 26.67° C | 38% | 1014.8 hPa | 0 mm | - | 757 W/m² | - |
| 1777836417 | 26.11° C | 37% | 1014.6 hPa | 0 mm | - | 763 W/m² | - |
| 1777836112 | 26.67° C | 37% | 1014.7 hPa | 0 mm | - | 768 W/m² | - |
| 1777835809 | 26.67° C | 37% | 1014.9 hPa | 0 mm | - | 773 W/m² | - |
| 1777835507 | 26.11° C | 38% | 1014.7 hPa | 0 mm | - | 779 W/m² | - |
| 1777835203 | 26.11° C | 37% | 1015 hPa | 0 mm | - | 783 W/m² | - |
| 1777834900 | 26.11° C | 37% | 1015 hPa | 0 mm | - | 789 W/m² | - |
| 1777834597 | 26.11° C | 39% | 1015.1 hPa | 0 mm | - | 789 W/m² | - |
* Rain latest hour (hover to see other rain measurements)
** Current wind speed in m/s (hover to see current wind gust speed)